Time,TemperatureF,DewpointF,PressureIn,WindDirection,WindDirectionDegrees,WindSpeedMPH,WindSpeedGustMPH,Humidity,HourlyPrecipIn,Conditions,Clouds,dailyrainin,SoftwareType,DateUTC
2013-07-01 00:01:00,63.6,61.2,29.96,NW,321,0.0,0.0,92,0.00,,,0.00,Wunderground v.1.15,2013-07-01 04:01:00,
2013-07-01 00:02:00,63.5,61.1,29.96,NW,321,0.0,0.0,92,0.00,,,0.00,Wunderground v.1.15,2013-07-01 04:02:00,
2013-07-01 00:04:00,63.4,61.3,29.96,NW,321,0.0,0.0,93,0.00,,,0.00,Wunderground v.1.15,2013-07-01 04:04:00,
2013-07-01 00:07:00,63.4,61.3,29.96,NW,321,0.0,0.0,93,0.00,,,0.00,Wunderground v.1.15,2013-07-01 04:07:00,
2013-07-01 00:12:00,63.7,61.0,29.96,NNW,333,0.0,2.0,91,0.00,,,0.00,Wunderground v.1.15,2013-07-01 04:12:00,
2013-07-01 00:18:00,63.8,61.1,29.96,NNW,333,0.0,2.0,91,0.00,,,0.00,Wunderground v.1.15,2013-07-01 04:18:00,
2013-07-01 00:23:00,64.1,61.1,29.96,NNW,333,0.0,0.0,90,0.00,,,0.00,Wunderground v.1.15,2013-07-01 04:23:00,
2013-07-01 00:29:00,64.3,61.0,29.96,ESE,109,1.0,2.0,89,0.00,,,0.00,Wunderground v.1.15,2013-07-01 04:29:00,
2013-07-01 00:34:00,64.5,60.9,29.96,ESE,123,0.0,2.0,88,0.00,,,0.00,Wunderground v.1.15,2013-07-01 04:34:00,
2013-07-01 00:39:00,64.7,61.1,29.96,SE,128,2.0,2.0,88,0.00,,,0.00,Wunderground v.1.15,2013-07-01 04:39:00,
2013-07-01 00:45:00,64.8,60.5,29.96,ESE,122,0.0,3.0,86,0.00,,,0.00,Wunderground v.1.15,2013-07-01 04:45:00,
2013-07-01 00:50:00,65.0,59.4,29.96,ESE,114,1.0,1.0,82,0.00,,,0.00,Wunderground v.1.15,2013-07-01 04:50:00,
2013-07-01 00:56:00,65.2,58.9,29.96,ENE,59,0.0,5.0,80,0.00,,,0.00,Wunderground v.1.15,2013-07-01 04:56:00,
2013-07-01 01:01:00,64.9,58.9,29.96,ENE,59,1.0,1.0,81,0.00,,,0.00,Wunderground v.1.15,2013-07-01 05:01:00,
2013-07-01 01:08:00,64.7,58.7,29.96,ENE,59,0.0,1.0,81,0.00,,,0.00,Wunderground v.1.15,2013-07-01 05:08:00,
2013-07-01 01:14:00,64.7,57.7,29.96,ESE,111,1.0,2.0,78,0.00,,,0.00,Wunderground v.1.15,2013-07-01 05:14:00,
2013-07-01 01:19:00,64.8,57.4,29.97,ESE,111,2.0,2.0,77,0.00,,,0.00,Wunderground v.1.15,2013-07-01 05:19:00,
2013-07-01 01:25:00,64.7,57.0,29.97,ESE,107,2.0,2.0,76,0.00,,,0.00,Wunderground v.1.15,2013-07-01 05:25:00,
2013-07-01 01:30:00,64.7,56.2,29.96,ESE,121,0.0,1.0,74,0.00,,,0.00,Wunderground v.1.15,2013-07-01 05:30:00,
2013-07-01 01:36:00,64.7,55.5,29.96,East,98,2.0,2.0,72,0.00,,,0.00,Wunderground v.1.15,2013-07-01 05:36:00,
2013-07-01 01:42:00,64.5,54.9,29.97,SE,129,2.0,3.0,71,0.00,,,0.00,Wunderground v.1.15,2013-07-01 05:42:00,
2013-07-01 01:47:00,64.2,55.0,29.97,East,101,2.0,3.0,72,0.00,,,0.00,Wunderground v.1.15,2013-07-01 05:47:00,
2013-07-01 01:52:00,63.8,54.2,29.97,ESE,121,0.0,1.0,71,0.00,,,0.00,Wunderground v.1.15,2013-07-01 05:52:00,
2013-07-01 01:58:00,63.4,53.0,29.97,ESE,109,1.0,3.0,69,0.00,,,0.00,Wunderground v.1.15,2013-07-01 05:58:00,
2013-07-01 02:03:00,63.3,53.0,29.97,ESE,113,2.0,3.0,69,0.00,,,0.00,Wunderground v.1.15,2013-07-01 06:03:00,
2013-07-01 02:08:00,63.1,52.4,29.96,SE,125,1.0,5.0,68,0.00,,,0.00,Wunderground v.1.15,2013-07-01 06:08:00,
2013-07-01 02:13:00,62.9,51.8,29.96,ESE,119,2.0,4.0,67,0.00,,,0.00,Wunderground v.1.15,2013-07-01 06:13:00,
2013-07-01 02:18:00,62.7,51.6,29.96,East,97,1.0,4.0,67,0.00,,,0.00,Wunderground v.1.15,2013-07-01 06:18:00,
2013-07-01 02:23:00,62.6,51.1,29.96,ESE,115,1.0,4.0,66,0.00,,,0.00,Wunderground v.1.15,2013-07-01 06:23:00,
2013-07-01 02:28:00,62.4,50.1,29.96,SE,126,2.0,4.0,64,0.00,,,0.00,Wunderground v.1.15,2013-07-01 06:28:00,
2013-07-01 02:33:00,62.4,49.2,29.96,ESE,118,1.0,10.0,62,0.00,,,0.00,Wunderground v.1.15,2013-07-01 06:33:00,
2013-07-01 02:38:00,62.4,48.8,29.96,ESE,107,1.0,10.0,61,0.00,,,0.00,Wunderground v.1.15,2013-07-01 06:38:00,
2013-07-01 02:43:00,62.5,47.1,29.96,ESE,105,1.0,9.0,57,0.00,,,0.00,Wunderground v.1.15,2013-07-01 06:43:00,
2013-07-01 02:48:00,62.5,46.1,29.96,East,98,3.0,9.0,55,0.00,,,0.00,Wunderground v.1.15,2013-07-01 06:48:00,
2013-07-01 02:53:00,62.5,45.6,29.96,SE,124,1.0,5.0,54,0.00,,,0.00,Wunderground v.1.15,2013-07-01 06:53:00,
2013-07-01 02:58:00,62.5,45.1,29.97,SE,133,4.0,6.0,53,0.00,,,0.00,Wunderground v.1.15,2013-07-01 06:58:00,
2013-07-01 03:03:00,62.4,44.5,29.97,ESE,105,3.0,4.0,52,0.00,,,0.00,Wunderground v.1.15,2013-07-01 07:03:00,
2013-07-01 03:09:00,62.4,43.5,29.97,East,92,2.0,7.0,50,0.00,,,0.00,Wunderground v.1.15,2013-07-01 07:09:00,
2013-07-01 03:14:00,62.4,42.4,29.96,East,98,2.0,5.0,48,0.00,,,0.00,Wunderground v.1.15,2013-07-01 07:14:00,
2013-07-01 03:19:00,62.4,42.4,29.96,SE,131,0.0,5.0,48,0.00,,,0.00,Wunderground v.1.15,2013-07-01 07:19:00,
2013-07-01 03:24:00,62.4,42.4,29.97,SE,126,2.0,7.0,48,0.00,,,0.00,Wunderground v.1.15,2013-07-01 07:24:00,
2013-07-01 03:29:00,62.4,41.9,29.97,ESE,111,0.0,8.0,47,0.00,,,0.00,Wunderground v.1.15,2013-07-01 07:29:00,
2013-07-01 03:34:00,62.2,41.7,29.97,ESE,103,2.0,6.0,47,0.00,,,0.00,Wunderground v.1.15,2013-07-01 07:34:00,
2013-07-01 03:39:00,62.0,41.5,29.97,ESE,104,2.0,7.0,47,0.00,,,0.00,Wunderground v.1.15,2013-07-01 07:39:00,
2013-07-01 03:44:00,61.7,42.3,29.97,East,88,2.0,4.0,49,0.00,,,0.00,Wunderground v.1.15,2013-07-01 07:44:00,
2013-07-01 03:49:00,61.4,42.1,29.97,ESE,102,0.0,4.0,49,0.00,,,0.00,Wunderground v.1.15,2013-07-01 07:49:00,
2013-07-01 03:54:00,61.3,42.5,29.97,East,101,1.0,6.0,50,0.00,,,0.00,Wunderground v.1.15,2013-07-01 07:54:00,
2013-07-01 03:59:00,61.1,42.3,29.97,SE,128,1.0,6.0,50,0.00,,,0.00,Wunderground v.1.15,2013-07-01 07:59:00,
2013-07-01 04:04:00,61.0,41.7,29.97,East,90,2.0,8.0,49,0.00,,,0.00,Wunderground v.1.15,2013-07-01 08:04:00,
2013-07-01 04:09:00,61.0,42.2,29.97,East,97,2.0,8.0,50,0.00,,,0.00,Wunderground v.1.15,2013-07-01 08:09:00,
2013-07-01 04:14:00,60.9,41.6,29.97,SE,134,1.0,6.0,49,0.00,,,0.00,Wunderground v.1.15,2013-07-01 08:14:00,
2013-07-01 04:19:00,60.7,41.9,29.97,SE,136,1.0,6.0,50,0.00,,,0.00,Wunderground v.1.15,2013-07-01 08:19:00,
2013-07-01 04:24:00,60.7,41.4,29.97,East,92,1.0,9.0,49,0.00,,,0.00,Wunderground v.1.15,2013-07-01 08:24:00,
2013-07-01 04:29:00,60.7,41.4,29.97,ESE,123,2.0,3.0,49,0.00,,,0.00,Wunderground v.1.15,2013-07-01 08:29:00,
2013-07-01 04:34:00,60.8,41.5,29.97,ESE,108,3.0,7.0,49,0.00,,,0.00,Wunderground v.1.15,2013-07-01 08:34:00,
2013-07-01 04:39:00,60.8,41.5,29.97,ESE,104,3.0,3.0,49,0.00,,,0.00,Wunderground v.1.15,2013-07-01 08:39:00,
2013-07-01 04:44:00,60.7,41.9,29.97,East,80,0.0,4.0,50,0.00,,,0.00,Wunderground v.1.15,2013-07-01 08:44:00,
2013-07-01 04:49:00,60.5,42.3,29.97,East,92,4.0,4.0,51,0.00,,,0.00,Wunderground v.1.15,2013-07-01 08:49:00,
2013-07-01 04:54:00,60.5,41.8,29.97,East,93,1.0,7.0,50,0.00,,,0.00,Wunderground v.1.15,2013-07-01 08:54:00,
2013-07-01 04:59:00,60.4,42.2,29.97,ESE,119,4.0,4.0,51,0.00,,,0.00,Wunderground v.1.15,2013-07-01 08:59:00,
2013-07-01 05:04:00,60.4,42.7,29.98,East,96,2.0,6.0,52,0.00,,,0.00,Wunderground v.1.15,2013-07-01 09:04:00,
2013-07-01 05:09:00,60.3,43.1,29.98,NE,44,5.0,5.0,53,0.00,,,0.00,Wunderground v.1.15,2013-07-01 09:09:00,
2013-07-01 05:14:00,60.2,43.5,29.98,SSE,157,1.0,6.0,54,0.00,,,0.00,Wunderground v.1.15,2013-07-01 09:14:00,
2013-07-01 05:19:00,59.9,43.7,29.98,ESE,111,3.0,6.0,55,0.00,,,0.00,Wunderground v.1.15,2013-07-01 09:19:00,
2013-07-01 05:24:00,59.8,44.1,29.98,East,92,1.0,6.0,56,0.00,,,0.00,Wunderground v.1.15,2013-07-01 09:24:00,
2013-07-01 05:29:00,59.7,44.0,29.98,ESE,121,1.0,3.0,56,0.00,,,0.00,Wunderground v.1.15,2013-07-01 09:29:00,
2013-07-01 05:35:00,59.5,44.2,29.98,ENE,76,4.0,5.0,57,0.00,,,0.00,Wunderground v.1.15,2013-07-01 09:35:00,
2013-07-01 05:40:00,59.3,44.5,29.98,East,81,1.0,3.0,58,0.00,,,0.00,Wunderground v.1.15,2013-07-01 09:40:00,
2013-07-01 05:45:00,59.1,44.8,29.98,East,86,1.0,4.0,59,0.00,,,0.00,Wunderground v.1.15,2013-07-01 09:45:00,
2013-07-01 05:50:00,59.0,45.1,29.98,ESE,107,4.0,4.0,60,0.00,,,0.00,Wunderground v.1.15,2013-07-01 09:50:00,
2013-07-01 05:55:00,59.0,45.1,29.98,ESE,109,2.0,5.0,60,0.00,,,0.00,Wunderground v.1.15,2013-07-01 09:55:00,
2013-07-01 06:00:00,58.9,45.0,29.98,SE,136,4.0,5.0,60,0.00,,,0.00,Wunderground v.1.15,2013-07-01 10:00:00,
2013-07-01 06:05:00,59.0,45.1,29.98,ESE,113,1.0,5.0,60,0.00,,,0.00,Wunderground v.1.15,2013-07-01 10:05:00,
2013-07-01 06:10:00,59.0,45.6,29.98,ESE,105,4.0,4.0,61,0.00,,,0.00,Wunderground v.1.15,2013-07-01 10:10:00,
2013-07-01 06:15:00,59.1,45.7,29.98,East,96,0.0,5.0,61,0.00,,,0.00,Wunderground v.1.15,2013-07-01 10:15:00,
2013-07-01 06:20:00,59.1,45.7,29.98,ESE,116,0.0,3.0,61,0.00,,,0.00,Wunderground v.1.15,2013-07-01 10:20:00,
2013-07-01 06:25:00,59.0,46.0,29.98,East,98,2.0,5.0,62,0.00,,,0.00,Wunderground v.1.15,2013-07-01 10:25:00,
2013-07-01 06:30:00,59.0,46.0,29.99,ESE,118,2.0,2.0,62,0.00,,,0.00,Wunderground v.1.15,2013-07-01 10:30:00,
2013-07-01 06:35:00,58.9,46.3,29.99,East,97,1.0,4.0,63,0.00,,,0.00,Wunderground v.1.15,2013-07-01 10:35:00,
2013-07-01 06:40:00,58.7,46.1,29.99,East,98,0.0,2.0,63,0.00,,,0.00,Wunderground v.1.15,2013-07-01 10:40:00,
2013-07-01 06:45:00,58.7,46.5,29.99,ESE,107,0.0,3.0,64,0.00,,,0.00,Wunderground v.1.15,2013-07-01 10:45:00,
2013-07-01 06:50:00,58.6,46.9,30.00,East,94,2.0,2.0,65,0.00,,,0.00,Wunderground v.1.15,2013-07-01 10:50:00,
2013-07-01 06:55:00,58.6,46.9,30.00,East,88,2.0,4.0,65,0.00,,,0.00,Wunderground v.1.15,2013-07-01 10:55:00,
2013-07-01 07:00:00,58.7,47.0,30.00,SE,124,3.0,4.0,65,0.00,,,0.00,Wunderground v.1.15,2013-07-01 11:00:00,
2013-07-01 07:05:00,58.8,47.1,30.00,ESE,103,0.0,8.0,65,0.00,,,0.00,Wunderground v.1.15,2013-07-01 11:05:00,
2013-07-01 07:10:00,58.7,47.4,30.00,ESE,122,0.0,2.0,66,0.00,,,0.00,Wunderground v.1.15,2013-07-01 11:10:00,
2013-07-01 07:15:00,58.5,47.2,30.00,ESE,110,0.0,5.0,66,0.00,,,0.00,Wunderground v.1.15,2013-07-01 11:15:00,
2013-07-01 07:20:00,58.4,47.1,30.00,ENE,66,3.0,4.0,66,0.00,,,0.00,Wunderground v.1.15,2013-07-01 11:20:00,
2013-07-01 07:25:00,58.3,47.4,30.00,ESE,106,0.0,4.0,67,0.00,,,0.00,Wunderground v.1.15,2013-07-01 11:25:00,
2013-07-01 07:30:00,58.2,47.7,30.00,ESE,107,0.0,3.0,68,0.00,,,0.00,Wunderground v.1.15,2013-07-01 11:30:00,
2013-07-01 07:35:00,58.4,47.5,30.00,ESE,113,2.0,4.0,67,0.00,,,0.00,Wunderground v.1.15,2013-07-01 11:35:00,
2013-07-01 07:40:00,58.5,48.0,30.00,East,92,1.0,4.0,68,0.00,,,0.00,Wunderground v.1.15,2013-07-01 11:40:00,
2013-07-01 07:45:00,58.8,48.3,30.01,East,82,2.0,5.0,68,0.00,,,0.00,Wunderground v.1.15,2013-07-01 11:45:00,
2013-07-01 07:51:00,59.1,48.5,30.01,ESE,109,2.0,3.0,68,0.00,,,0.00,Wunderground v.1.15,2013-07-01 11:51:00,
2013-07-01 07:56:00,59.3,48.7,30.00,ESE,103,4.0,5.0,68,0.00,,,0.00,Wunderground v.1.15,2013-07-01 11:56:00,
2013-07-01 08:01:00,59.5,48.9,30.01,East,85,0.0,5.0,68,0.00,,,0.00,Wunderground v.1.15,2013-07-01 12:01:00,
2013-07-01 08:06:00,59.8,48.8,30.01,ESE,109,1.0,5.0,67,0.00,,,0.00,Wunderground v.1.15,2013-07-01 12:06:00,
2013-07-01 08:11:00,60.0,49.4,30.01,ESE,115,3.0,5.0,68,0.00,,,0.00,Wunderground v.1.15,2013-07-01 12:11:00,
2013-07-01 08:16:00,60.3,49.7,30.01,ESE,117,2.0,5.0,68,0.00,,,0.00,Wunderground v.1.15,2013-07-01 12:16:00,
2013-07-01 08:21:00,60.7,50.1,30.01,ENE,73,0.0,4.0,68,0.00,,,0.00,Wunderground v.1.15,2013-07-01 12:21:00,
2013-07-01 08:26:00,61.1,50.1,30.01,ESE,113,2.0,5.0,67,0.00,,,0.00,Wunderground v.1.15,2013-07-01 12:26:00,
2013-07-01 08:31:00,61.4,50.3,30.01,ESE,109,3.0,4.0,67,0.00,,,0.00,Wunderground v.1.15,2013-07-01 12:31:00,
2013-07-01 08:36:00,61.8,50.3,30.01,East,87,1.0,8.0,66,0.00,,,0.00,Wunderground v.1.15,2013-07-01 12:36:00,
2013-07-01 08:41:00,62.1,50.6,30.01,ESE,113,1.0,4.0,66,0.00,,,0.00,Wunderground v.1.15,2013-07-01 12:41:00,
2013-07-01 08:46:00,62.4,50.9,30.01,ESE,120,1.0,5.0,66,0.00,,,0.00,Wunderground v.1.15,2013-07-01 12:46:00,
2013-07-01 08:51:00,62.8,50.9,30.01,East,98,1.0,10.0,65,0.00,,,0.00,Wunderground v.1.15,2013-07-01 12:51:00,
2013-07-01 08:56:00,63.1,51.1,30.01,East,101,3.0,10.0,65,0.00,,,0.00,Wunderground v.1.15,2013-07-01 12:56:00,
2013-07-01 09:01:00,63.3,51.3,30.01,East,100,3.0,4.0,65,0.00,,,0.00,Wunderground v.1.15,2013-07-01 13:01:00,
2013-07-01 09:06:00,63.6,50.8,30.01,NE,49,3.0,9.0,63,0.00,,,0.00,Wunderground v.1.15,2013-07-01 13:06:00,
2013-07-01 09:11:00,63.6,51.2,30.01,ESE,118,7.0,7.0,64,0.00,,,0.00,Wunderground v.1.15,2013-07-01 13:11:00,
2013-07-01 09:16:00,63.5,50.7,30.01,ENE,66,2.0,7.0,63,0.00,,,0.00,Wunderground v.1.15,2013-07-01 13:16:00,
2013-07-01 09:21:00,63.8,51.8,30.01,ESE,106,3.0,5.0,65,0.00,,,0.00,Wunderground v.1.15,2013-07-01 13:21:00,
2013-07-01 09:26:00,64.0,51.6,30.01,East,88,1.0,5.0,64,0.00,,,0.00,Wunderground v.1.15,2013-07-01 13:26:00,
2013-07-01 09:31:00,64.0,51.1,30.02,ESE,116,0.0,3.0,63,0.00,,,0.00,Wunderground v.1.15,2013-07-01 13:31:00,
2013-07-01 09:36:00,63.2,52.5,30.02,WNW,300,2.0,6.0,68,0.00,,,0.00,Wunderground v.1.15,2013-07-01 13:36:00,
2013-07-01 09:41:00,62.0,52.9,30.02,WNW,300,0.0,1.0,72,0.00,,,0.00,Wunderground v.1.15,2013-07-01 13:41:00,
2013-07-01 09:46:00,61.7,53.0,30.02,NW,319,0.0,2.0,73,0.00,,,0.00,Wunderground v.1.15,2013-07-01 13:46:00,
2013-07-01 09:51:00,62.0,52.5,30.02,ENE,78,0.0,5.0,71,0.00,,,0.00,Wunderground v.1.15,2013-07-01 13:51:00,
2013-07-01 09:57:00,62.2,52.3,30.02,WNW,289,3.0,10.0,70,0.00,,,0.00,Wunderground v.1.15,2013-07-01 13:57:00,
2013-07-01 10:02:00,62.7,53.5,30.02,NNE,18,0.0,2.0,72,0.00,,,0.00,Wunderground v.1.15,2013-07-01 14:02:00,
2013-07-01 10:07:00,63.0,52.3,30.02,East,100,0.0,4.0,68,0.00,,,0.00,Wunderground v.1.15,2013-07-01 14:07:00,
2013-07-01 10:12:00,64.1,52.9,30.02,ESE,115,4.0,4.0,67,0.00,,,0.00,Wunderground v.1.15,2013-07-01 14:12:00,
2013-07-01 10:17:00,64.6,52.1,30.02,ENE,57,4.0,7.0,64,0.00,,,0.00,Wunderground v.1.15,2013-07-01 14:17:00,
2013-07-01 10:22:00,64.3,53.5,30.02,NNE,28,0.0,2.0,68,0.00,,,0.00,Wunderground v.1.15,2013-07-01 14:22:00,
2013-07-01 10:27:00,63.0,53.4,30.02,ESE,106,0.0,3.0,71,0.00,,,0.00,Wunderground v.1.15,2013-07-01 14:27:00,
2013-07-01 10:32:00,61.9,54.2,30.02,SW,223,1.0,1.0,76,0.00,,,0.00,Wunderground v.1.15,2013-07-01 14:32:00,
2013-07-01 10:37:00,61.4,55.2,30.02,WNW,302,0.0,3.0,80,0.00,,,0.00,Wunderground v.1.15,2013-07-01 14:37:00,
2013-07-01 10:42:00,61.1,53.5,30.02,NW,324,3.0,9.0,76,0.00,,,0.00,Wunderground v.1.15,2013-07-01 14:42:00,
2013-07-01 10:47:00,60.8,53.2,30.02,NW,306,2.0,9.0,76,0.00,,,0.00,Wunderground v.1.15,2013-07-01 14:47:00,
2013-07-01 10:52:00,60.9,54.0,30.02,West,259,2.0,6.0,78,0.00,,,0.00,Wunderground v.1.15,2013-07-01 14:52:00,
2013-07-01 10:57:00,61.1,53.1,30.02,NNW,346,2.0,6.0,75,0.00,,,0.00,Wunderground v.1.15,2013-07-01 14:57:00,
2013-07-01 11:02:00,61.1,53.5,30.02,NNW,346,1.0,5.0,76,0.00,,,0.00,Wunderground v.1.15,2013-07-01 15:02:00,
2013-07-01 11:07:00,61.3,54.4,30.02,West,271,0.0,5.0,78,0.00,,,0.00,Wunderground v.1.15,2013-07-01 15:07:00,
2013-07-01 11:12:00,61.5,54.2,30.02,NNW,329,3.0,7.0,77,0.00,,,0.00,Wunderground v.1.15,2013-07-01 15:12:00,
2013-07-01 11:17:00,61.5,54.2,30.03,NW,316,1.0,10.0,77,0.00,,,0.00,Wunderground v.1.15,2013-07-01 15:17:00,
2013-07-01 11:22:00,61.7,54.4,30.03,North,355,4.0,5.0,77,0.00,,,0.00,Wunderground v.1.15,2013-07-01 15:22:00,
2013-07-01 11:27:00,61.7,53.7,30.03,NW,311,0.0,7.0,75,0.00,,,0.00,Wunderground v.1.15,2013-07-01 15:27:00,
2013-07-01 11:32:00,61.7,54.8,30.03,NNW,329,3.0,5.0,78,0.00,,,0.00,Wunderground v.1.15,2013-07-01 15:32:00,
2013-07-01 11:37:00,61.8,55.6,30.03,NNW,331,3.0,8.0,80,0.00,,,0.00,Wunderground v.1.15,2013-07-01 15:37:00,
2013-07-01 11:42:00,62.2,56.3,30.03,ESE,117,1.0,6.0,81,0.00,,,0.00,Wunderground v.1.15,2013-07-01 15:42:00,
2013-07-01 11:47:00,62.5,55.2,30.03,North,355,1.0,6.0,77,0.00,,,0.00,Wunderground v.1.15,2013-07-01 15:47:00,
2013-07-01 11:52:00,62.3,55.4,30.03,NW,306,6.0,6.0,78,0.00,,,0.00,Wunderground v.1.15,2013-07-01 15:52:00,
2013-07-01 11:57:00,63.3,56.3,30.03,NE,46,3.0,7.0,78,0.00,,,0.00,Wunderground v.1.15,2013-07-01 15:57:00,
2013-07-01 12:02:00,63.9,56.2,30.03,ENE,65,1.0,7.0,76,0.00,,,0.00,Wunderground v.1.15,2013-07-01 16:02:00,
2013-07-01 12:03:00,63.9,56.5,30.03,NNE,18,1.0,7.0,77,0.00,,,0.00,Wunderground v.1.15,2013-07-01 16:03:00,
2013-07-01 12:08:00,63.4,56.1,30.03,NE,47,1.0,9.0,77,0.00,,,0.00,Wunderground v.1.15,2013-07-01 16:08:00,
2013-07-01 12:13:00,63.1,56.5,30.03,NE,48,1.0,8.0,79,0.00,,,0.00,Wunderground v.1.15,2013-07-01 16:13:00,
2013-07-01 12:18:00,63.1,56.8,30.03,NNW,344,1.0,8.0,80,0.00,,,0.00,Wunderground v.1.15,2013-07-01 16:18:00,
2013-07-01 12:23:00,63.5,55.8,30.03,NNW,335,7.0,9.0,76,0.00,,,0.00,Wunderground v.1.15,2013-07-01 16:23:00,
2013-07-01 12:28:00,63.7,56.0,30.03,WSW,257,2.0,9.0,76,0.00,,,0.00,Wunderground v.1.15,2013-07-01 16:28:00,
2013-07-01 12:33:00,64.0,55.9,30.03,NE,55,3.0,11.0,75,0.00,,,0.00,Wunderground v.1.15,2013-07-01 16:33:00,
2013-07-01 12:38:00,64.5,56.8,30.03,WNW,298,3.0,11.0,76,0.00,,,0.00,Wunderground v.1.15,2013-07-01 16:38:00,
2013-07-01 12:43:00,65.1,58.8,30.03,NNE,14,5.0,6.0,80,0.00,,,0.00,Wunderground v.1.15,2013-07-01 16:43:00,
2013-07-01 12:48:00,64.7,57.3,30.03,NNW,342,4.0,8.0,77,0.00,,,0.00,Wunderground v.1.15,2013-07-01 16:48:00,
2013-07-01 12:53:00,64.3,57.3,30.03,West,276,1.0,11.0,78,0.00,,,0.00,Wunderground v.1.15,2013-07-01 16:53:00,
2013-07-01 12:58:00,64.5,56.8,30.03,NW,314,1.0,11.0,76,0.00,,,0.00,Wunderground v.1.15,2013-07-01 16:58:00,
2013-07-01 13:03:00,64.4,57.4,30.03,West,272,6.0,7.0,78,0.00,,,0.00,Wunderground v.1.15,2013-07-01 17:03:00,
2013-07-01 13:08:00,65.0,57.6,30.03,NNW,333,3.0,12.0,77,0.00,,,0.00,Wunderground v.1.15,2013-07-01 17:08:00,
2013-07-01 13:13:00,64.7,58.4,30.03,NNE,17,1.0,7.0,80,0.00,,,0.00,Wunderground v.1.15,2013-07-01 17:13:00,
2013-07-01 13:18:00,64.7,58.0,30.03,West,279,9.0,10.0,79,0.00,,,0.00,Wunderground v.1.15,2013-07-01 17:18:00,
2013-07-01 13:23:00,65.2,57.8,30.03,NNE,25,1.0,12.0,77,0.00,,,0.00,Wunderground v.1.15,2013-07-01 17:23:00,
2013-07-01 13:28:00,65.7,58.7,30.03,NW,310,0.0,12.0,78,0.00,,,0.00,Wunderground v.1.15,2013-07-01 17:28:00,
2013-07-01 13:33:00,66.1,59.0,30.03,NW,312,0.0,5.0,78,0.00,,,0.00,Wunderground v.1.15,2013-07-01 17:33:00,
2013-07-01 13:38:00,66.8,59.7,30.03,NW,321,0.0,7.0,78,0.00,,,0.00,Wunderground v.1.15,2013-07-01 17:38:00,
2013-07-01 13:43:00,68.4,58.2,30.03,NE,43,2.0,4.0,70,0.00,,,0.00,Wunderground v.1.15,2013-07-01 17:43:00,
2013-07-01 13:48:00,70.1,55.6,30.03,ESE,107,9.0,9.0,60,0.00,,,0.00,Wunderground v.1.15,2013-07-01 17:48:00,
2013-07-01 13:53:00,70.1,55.6,30.03,ESE,120,8.0,8.0,60,0.00,,,0.00,Wunderground v.1.15,2013-07-01 17:53:00,
2013-07-01 13:58:00,70.1,55.1,30.03,East,98,12.0,12.0,59,0.00,,,0.00,Wunderground v.1.15,2013-07-01 17:58:00,
2013-07-01 14:03:00,69.6,53.7,30.02,East,93,2.0,4.0,57,0.00,,,0.00,Wunderground v.1.15,2013-07-01 18:03:00,
2013-07-01 14:08:00,69.7,55.2,30.02,SE,137,7.0,10.0,60,0.00,,,0.00,Wunderground v.1.15,2013-07-01 18:08:00,
2013-07-01 14:13:00,71.2,56.6,30.02,NNE,32,3.0,7.0,60,0.00,,,0.00,Wunderground v.1.15,2013-07-01 18:13:00,
2013-07-01 14:18:00,71.5,54.0,30.02,ESE,107,7.0,13.0,54,0.00,,,0.00,Wunderground v.1.15,2013-07-01 18:18:00,
2013-07-01 14:23:00,71.2,54.2,30.02,ENE,72,0.0,9.0,55,0.00,,,0.00,Wunderground v.1.15,2013-07-01 18:23:00,
2013-07-01 14:28:00,71.2,56.6,30.02,NW,324,2.0,13.0,60,0.00,,,0.00,Wunderground v.1.15,2013-07-01 18:28:00,
2013-07-01 14:33:00,71.0,54.5,30.02,ESE,116,6.0,10.0,56,0.00,,,0.00,Wunderground v.1.15,2013-07-01 18:33:00,
2013-07-01 14:38:00,70.8,54.8,30.02,North,9,2.0,10.0,57,0.00,,,0.00,Wunderground v.1.15,2013-07-01 18:38:00,
2013-07-01 14:43:00,70.8,55.8,30.02,ESE,108,4.0,9.0,59,0.00,,,0.00,Wunderground v.1.15,2013-07-01 18:43:00,
2013-07-01 14:49:00,71.1,55.6,30.02,East,84,1.0,12.0,58,0.00,,,0.00,Wunderground v.1.15,2013-07-01 18:49:00,
2013-07-01 14:54:00,71.4,56.3,30.02,East,92,3.0,7.0,59,0.00,,,0.00,Wunderground v.1.15,2013-07-01 18:54:00,
2013-07-01 14:59:00,71.8,57.2,30.02,ENE,59,4.0,13.0,60,0.00,,,0.00,Wunderground v.1.15,2013-07-01 18:59:00,
2013-07-01 15:04:00,72.8,56.2,30.02,ENE,59,6.0,10.0,56,0.00,,,0.00,Wunderground v.1.15,2013-07-01 19:04:00,
2013-07-01 15:09:00,72.4,57.7,30.02,SE,129,1.0,11.0,60,0.00,,,0.00,Wunderground v.1.15,2013-07-01 19:09:00,
2013-07-01 15:14:00,72.0,56.4,30.02,ESE,113,2.0,10.0,58,0.00,,,0.00,Wunderground v.1.15,2013-07-01 19:14:00,
2013-07-01 15:19:00,71.9,59.1,30.02,ESE,109,4.0,10.0,64,0.00,,,0.00,Wunderground v.1.15,2013-07-01 19:19:00,
2013-07-01 15:24:00,72.1,57.0,30.02,ESE,106,2.0,11.0,59,0.00,,,0.00,Wunderground v.1.15,2013-07-01 19:24:00,
2013-07-01 15:29:00,72.4,56.8,30.02,East,80,4.0,11.0,58,0.00,,,0.00,Wunderground v.1.15,2013-07-01 19:29:00,
2013-07-01 15:34:00,72.4,56.3,30.02,ESE,107,2.0,7.0,57,0.00,,,0.00,Wunderground v.1.15,2013-07-01 19:34:00,
2013-07-01 15:39:00,72.6,56.0,30.02,ESE,106,4.0,7.0,56,0.00,,,0.00,Wunderground v.1.15,2013-07-01 19:39:00,
2013-07-01 15:44:00,73.4,57.2,30.02,NE,51,5.0,11.0,57,0.00,,,0.00,Wunderground v.1.15,2013-07-01 19:44:00,
2013-07-01 15:49:00,74.2,57.0,30.02,East,90,2.0,11.0,55,0.00,,,0.00,Wunderground v.1.15,2013-07-01 19:49:00,
2013-07-01 15:54:00,75.5,56.6,30.02,East,101,10.0,12.0,52,0.00,,,0.00,Wunderground v.1.15,2013-07-01 19:54:00,
2013-07-01 15:59:00,75.5,55.6,30.02,SE,139,2.0,17.0,50,0.00,,,0.00,Wunderground v.1.15,2013-07-01 19:59:00,
2013-07-01 16:04:00,75.4,56.0,30.02,ESE,117,9.0,15.0,51,0.00,,,0.00,Wunderground v.1.15,2013-07-01 20:04:00,
2013-07-01 16:09:00,75.2,55.8,30.02,East,86,4.0,15.0,51,0.00,,,0.00,Wunderground v.1.15,2013-07-01 20:09:00,
2013-07-01 16:14:00,75.5,56.6,30.01,East,90,4.0,12.0,52,0.00,,,0.00,Wunderground v.1.15,2013-07-01 20:14:00,
2013-07-01 16:19:00,75.7,55.7,30.01,East,91,8.0,12.0,50,0.00,,,0.00,Wunderground v.1.15,2013-07-01 20:19:00,
2013-07-01 16:24:00,75.9,57.0,30.01,ESE,103,4.0,15.0,52,0.00,,,0.00,Wunderground v.1.15,2013-07-01 20:24:00,
2013-07-01 16:29:00,76.1,56.1,30.02,East,86,4.0,15.0,50,0.00,,,0.00,Wunderground v.1.15,2013-07-01 20:29:00,
2013-07-01 16:34:00,75.8,55.3,30.02,ESE,108,4.0,11.0,49,0.00,,,0.00,Wunderground v.1.15,2013-07-01 20:34:00,
2013-07-01 16:39:00,75.8,55.8,30.02,East,101,6.0,18.0,50,0.00,,,0.00,Wunderground v.1.15,2013-07-01 20:39:00,
2013-07-01 16:44:00,75.9,57.0,30.02,ENE,76,2.0,11.0,52,0.00,,,0.00,Wunderground v.1.15,2013-07-01 20:44:00,
2013-07-01 16:49:00,76.6,57.1,30.01,ESE,113,6.0,6.0,51,0.00,,,0.00,Wunderground v.1.15,2013-07-01 20:49:00,
2013-07-01 16:54:00,76.8,57.3,30.01,East,88,11.0,12.0,51,0.00,,,0.00,Wunderground v.1.15,2013-07-01 20:54:00,
2013-07-01 16:59:00,76.9,56.3,30.02,ESE,113,7.0,7.0,49,0.00,,,0.00,Wunderground v.1.15,2013-07-01 20:59:00,
2013-07-01 17:04:00,77.1,57.6,30.02,East,86,2.0,13.0,51,0.00,,,0.00,Wunderground v.1.15,2013-07-01 21:04:00,
2013-07-01 17:09:00,77.5,55.7,30.02,ESE,105,3.0,4.0,47,0.00,,,0.00,Wunderground v.1.15,2013-07-01 21:09:00,
2013-07-01 17:14:00,77.5,56.3,30.02,East,84,2.0,10.0,48,0.00,,,0.00,Wunderground v.1.15,2013-07-01 21:14:00,
2013-07-01 17:19:00,76.2,56.2,30.02,ESE,122,6.0,6.0,50,0.00,,,0.00,Wunderground v.1.15,2013-07-01 21:19:00,
2013-07-01 17:24:00,75.0,54.5,30.02,ESE,116,5.0,11.0,49,0.00,,,0.00,Wunderground v.1.15,2013-07-01 21:24:00,
2013-07-01 17:29:00,74.3,55.0,30.02,ESE,111,3.0,4.0,51,0.00,,,0.00,Wunderground v.1.15,2013-07-01 21:29:00,
2013-07-01 17:34:00,74.0,54.2,30.02,ESE,111,4.0,9.0,50,0.00,,,0.00,Wunderground v.1.15,2013-07-01 21:34:00,
2013-07-01 17:39:00,73.7,54.4,30.02,ESE,116,0.0,3.0,51,0.00,,,0.00,Wunderground v.1.15,2013-07-01 21:39:00,
2013-07-01 17:44:00,73.6,53.3,30.02,NE,51,0.0,10.0,49,0.00,,,0.00,Wunderground v.1.15,2013-07-01 21:44:00,
2013-07-01 17:49:00,73.4,52.5,30.02,ESE,119,5.0,5.0,48,0.00,,,0.00,Wunderground v.1.15,2013-07-01 21:49:00,
2013-07-01 17:54:00,73.3,51.8,30.02,East,85,4.0,6.0,47,0.00,,,0.00,Wunderground v.1.15,2013-07-01 21:54:00,
2013-07-01 17:59:00,73.2,52.3,30.02,SSE,166,1.0,4.0,48,0.00,,,0.00,Wunderground v.1.15,2013-07-01 21:59:00,
2013-07-01 18:04:00,73.1,51.7,30.02,East,91,3.0,14.0,47,0.00,,,0.00,Wunderground v.1.15,2013-07-01 22:04:00,
2013-07-01 18:09:00,73.0,52.1,30.02,East,96,4.0,6.0,48,0.00,,,0.00,Wunderground v.1.15,2013-07-01 22:09:00,
2013-07-01 18:14:00,72.8,52.0,30.02,ESE,114,4.0,10.0,48,0.00,,,0.00,Wunderground v.1.15,2013-07-01 22:14:00,
2013-07-01 18:19:00,72.8,53.1,30.02,East,88,4.0,9.0,50,0.00,,,0.00,Wunderground v.1.15,2013-07-01 22:19:00,
2013-07-01 18:24:00,72.6,51.8,30.02,ENE,59,6.0,11.0,48,0.00,,,0.00,Wunderground v.1.15,2013-07-01 22:24:00,
2013-07-01 18:29:00,72.6,51.8,30.02,East,92,3.0,4.0,48,0.00,,,0.00,Wunderground v.1.15,2013-07-01 22:29:00,
2013-07-01 18:34:00,72.4,52.7,30.02,SE,128,0.0,6.0,50,0.00,,,0.00,Wunderground v.1.15,2013-07-01 22:34:00,
2013-07-01 18:39:00,72.6,56.0,30.02,East,82,3.0,4.0,56,0.00,,,0.00,Wunderground v.1.15,2013-07-01 22:39:00,
2013-07-01 18:44:00,72.8,52.5,30.02,East,92,1.0,6.0,49,0.00,,,0.00,Wunderground v.1.15,2013-07-01 22:44:00,
2013-07-01 18:49:00,73.5,56.8,30.02,ESE,102,0.0,2.0,56,0.00,,,0.00,Wunderground v.1.15,2013-07-01 22:49:00,
2013-07-01 18:54:00,73.9,54.1,30.02,ENE,72,4.0,5.0,50,0.00,,,0.00,Wunderground v.1.15,2013-07-01 22:54:00,
2013-07-01 18:59:00,73.8,54.0,30.02,East,97,1.0,6.0,50,0.00,,,0.00,Wunderground v.1.15,2013-07-01 22:59:00,
2013-07-01 19:05:00,73.8,53.4,30.02,ENE,63,4.0,8.0,49,0.00,,,0.00,Wunderground v.1.15,2013-07-01 23:05:00,
2013-07-01 19:10:00,73.7,53.9,30.02,East,91,3.0,3.0,50,0.00,,,0.00,Wunderground v.1.15,2013-07-01 23:10:00,
2013-07-01 19:15:00,73.2,53.4,30.02,East,97,5.0,8.0,50,0.00,,,0.00,Wunderground v.1.15,2013-07-01 23:15:00,
2013-07-01 19:20:00,73.0,52.7,30.02,ENE,73,3.0,4.0,49,0.00,,,0.00,Wunderground v.1.15,2013-07-01 23:20:00,
2013-07-01 19:25:00,72.9,53.2,30.02,SE,134,4.0,9.0,50,0.00,,,0.00,Wunderground v.1.15,2013-07-01 23:25:00,
2013-07-01 19:30:00,72.7,52.4,30.03,ESE,110,3.0,5.0,49,0.00,,,0.00,Wunderground v.1.15,2013-07-01 23:30:00,
2013-07-01 19:35:00,72.6,52.3,30.03,ESE,107,2.0,6.0,49,0.00,,,0.00,Wunderground v.1.15,2013-07-01 23:35:00,
2013-07-01 19:40:00,72.7,53.0,30.03,East,100,1.0,4.0,50,0.00,,,0.00,Wunderground v.1.15,2013-07-01 23:40:00,
2013-07-01 19:45:00,72.6,52.9,30.03,NE,46,2.0,7.0,50,0.00,,,0.00,Wunderground v.1.15,2013-07-01 23:45:00,
2013-07-01 19:50:00,72.7,52.4,30.02,ENE,71,4.0,10.0,49,0.00,,,0.00,Wunderground v.1.15,2013-07-01 23:50:00,
2013-07-01 19:56:00,72.9,52.1,30.03,ESE,109,14.0,14.0,48,0.00,,,0.00,Wunderground v.1.15,2013-07-01 23:56:00,
2013-07-01 20:01:00,73.1,52.8,30.03,ESE,115,1.0,4.0,49,0.00,,,0.00,Wunderground v.1.15,2013-07-02 00:01:00,
2013-07-01 20:06:00,73.1,52.8,30.03,NE,46,3.0,11.0,49,0.00,,,0.00,Wunderground v.1.15,2013-07-02 00:06:00,
2013-07-01 20:11:00,72.6,52.3,30.03,East,86,2.0,6.0,49,0.00,,,0.00,Wunderground v.1.15,2013-07-02 00:11:00,
2013-07-01 20:16:00,72.5,53.9,30.03,ENE,71,0.0,6.0,52,0.00,,,0.00,Wunderground v.1.15,2013-07-02 00:16:00,
2013-07-01 20:21:00,72.4,52.7,30.03,East,86,5.0,5.0,50,0.00,,,0.00,Wunderground v.1.15,2013-07-02 00:21:00,
2013-07-01 20:26:00,72.3,53.7,30.03,East,101,3.0,7.0,52,0.00,,,0.00,Wunderground v.1.15,2013-07-02 00:26:00,
2013-07-01 20:31:00,72.3,53.7,30.03,ESE,105,0.0,5.0,52,0.00,,,0.00,Wunderground v.1.15,2013-07-02 00:31:00,
2013-07-01 20:36:00,72.2,52.5,30.03,ESE,103,4.0,6.0,50,0.00,,,0.00,Wunderground v.1.15,2013-07-02 00:36:00,
2013-07-01 20:41:00,71.7,53.7,30.04,East,88,1.0,2.0,53,0.00,,,0.00,Wunderground v.1.15,2013-07-02 00:41:00,
2013-07-01 20:46:00,71.5,52.4,30.04,ESE,104,2.0,5.0,51,0.00,,,0.00,Wunderground v.1.15,2013-07-02 00:46:00,
2013-07-01 20:51:00,71.3,52.8,30.04,East,101,0.0,3.0,52,0.00,,,0.00,Wunderground v.1.15,2013-07-02 00:51:00,
2013-07-01 20:56:00,71.1,53.1,30.04,ENE,69,0.0,5.0,53,0.00,,,0.00,Wunderground v.1.15,2013-07-02 00:56:00,
2013-07-01 21:01:00,69.5,53.6,30.04,East,79,0.0,1.0,57,0.00,,,0.00,Wunderground v.1.15,2013-07-02 01:01:00,
2013-07-01 21:06:00,67.7,53.3,30.04,ESE,121,1.0,3.0,60,0.00,,,0.00,Wunderground v.1.15,2013-07-02 01:06:00,
2013-07-01 21:11:00,67.2,55.5,30.04,ESE,113,0.0,1.0,66,0.00,,,0.00,Wunderground v.1.15,2013-07-02 01:11:00,
2013-07-01 21:16:00,64.8,54.4,30.04,West,273,0.0,2.0,69,0.00,,,0.00,Wunderground v.1.15,2013-07-02 01:16:00,
2013-07-01 21:21:00,63.7,54.1,30.04,West,273,0.0,0.0,71,0.00,,,0.00,Wunderground v.1.15,2013-07-02 01:21:00,
2013-07-01 21:26:00,64.5,54.5,30.04,West,281,2.0,2.0,70,0.00,,,0.00,Wunderground v.1.15,2013-07-02 01:26:00,
2013-07-01 21:31:00,66.1,54.0,30.04,East,91,1.0,3.0,65,0.00,,,0.00,Wunderground v.1.15,2013-07-02 01:31:00,
2013-07-01 21:36:00,67.4,53.9,30.04,East,88,3.0,5.0,62,0.00,,,0.00,Wunderground v.1.15,2013-07-02 01:36:00,
2013-07-01 21:41:00,68.2,53.8,30.04,SE,131,2.0,5.0,60,0.00,,,0.00,Wunderground v.1.15,2013-07-02 01:41:00,
2013-07-01 21:46:00,68.4,53.5,30.04,SE,143,1.0,5.0,59,0.00,,,0.00,Wunderground v.1.15,2013-07-02 01:46:00,
2013-07-01 21:51:00,68.5,53.1,30.04,East,89,1.0,5.0,58,0.00,,,0.00,Wunderground v.1.15,2013-07-02 01:51:00,
2013-07-01 21:56:00,68.4,53.0,30.04,East,91,4.0,8.0,58,0.00,,,0.00,Wunderground v.1.15,2013-07-02 01:56:00,
2013-07-01 22:01:00,68.3,52.0,30.04,ESE,118,0.0,5.0,56,0.00,,,0.00,Wunderground v.1.15,2013-07-02 02:01:00,
2013-07-01 22:06:00,68.3,52.0,30.04,East,88,6.0,6.0,56,0.00,,,0.00,Wunderground v.1.15,2013-07-02 02:06:00,
2013-07-01 22:12:00,68.1,51.3,30.04,East,90,2.0,6.0,55,0.00,,,0.00,Wunderground v.1.15,2013-07-02 02:12:00,
2013-07-01 22:17:00,68.2,50.9,30.04,SE,134,4.0,12.0,54,0.00,,,0.00,Wunderground v.1.15,2013-07-02 02:17:00,
2013-07-01 22:22:00,68.2,50.9,30.05,ESE,111,0.0,10.0,54,0.00,,,0.00,Wunderground v.1.15,2013-07-02 02:22:00,
2013-07-01 22:27:00,68.1,50.8,30.05,ESE,116,2.0,10.0,54,0.00,,,0.00,Wunderground v.1.15,2013-07-02 02:27:00,
2013-07-01 22:32:00,67.9,50.6,30.05,East,101,4.0,6.0,54,0.00,,,0.00,Wunderground v.1.15,2013-07-02 02:32:00,
2013-07-01 22:37:00,67.9,50.6,30.06,ESE,107,5.0,7.0,54,0.00,,,0.00,Wunderground v.1.15,2013-07-02 02:37:00,
2013-07-01 22:42:00,67.8,50.5,30.06,ESE,121,0.0,5.0,54,0.00,,,0.00,Wunderground v.1.15,2013-07-02 02:42:00,
2013-07-01 22:47:00,67.6,50.4,30.06,ESE,107,2.0,8.0,54,0.00,,,0.00,Wunderground v.1.15,2013-07-02 02:47:00,
2013-07-01 22:52:00,67.8,50.5,30.06,ESE,106,0.0,4.0,54,0.00,,,0.00,Wunderground v.1.15,2013-07-02 02:52:00,
2013-07-01 22:57:00,67.6,50.9,30.06,ESE,104,3.0,9.0,55,0.00,,,0.00,Wunderground v.1.15,2013-07-02 02:57:00,
2013-07-01 23:02:00,67.5,51.2,30.06,ESE,108,3.0,11.0,56,0.00,,,0.00,Wunderground v.1.15,2013-07-02 03:02:00,
2013-07-01 23:07:00,67.7,50.9,30.06,SE,124,1.0,11.0,55,0.00,,,0.00,Wunderground v.1.15,2013-07-02 03:07:00,
2013-07-01 23:12:00,67.6,51.8,30.06,ESE,105,1.0,10.0,57,0.00,,,0.00,Wunderground v.1.15,2013-07-02 03:12:00,
2013-07-01 23:17:00,67.5,51.7,30.06,ESE,107,3.0,10.0,57,0.00,,,0.00,Wunderground v.1.15,2013-07-02 03:17:00,
2013-07-01 23:22:00,67.5,51.7,30.06,East,94,5.0,11.0,57,0.00,,,0.00,Wunderground v.1.15,2013-07-02 03:22:00,
2013-07-01 23:27:00,67.5,51.7,30.06,East,91,3.0,13.0,57,0.00,,,0.00,Wunderground v.1.15,2013-07-02 03:27:00,
2013-07-01 23:32:00,67.3,52.0,30.05,East,86,4.0,6.0,58,0.00,,,0.00,Wunderground v.1.15,2013-07-02 03:32:00,
2013-07-01 23:37:00,67.1,52.3,30.05,ESE,121,2.0,10.0,59,0.00,,,0.00,Wunderground v.1.15,2013-07-02 03:37:00,
2013-07-01 23:42:00,67.0,52.2,30.05,East,96,0.0,8.0,59,0.00,,,0.00,Wunderground v.1.15,2013-07-02 03:42:00,
2013-07-01 23:47:00,66.9,52.6,30.05,ESE,104,0.0,11.0,60,0.00,,,0.00,Wunderground v.1.15,2013-07-02 03:47:00,
2013-07-01 23:52:00,66.5,52.2,30.05,ESE,116,1.0,6.0,60,0.00,,,0.00,Wunderground v.1.15,2013-07-02 03:52:00,
2013-07-01 23:57:00,66.2,52.3,30.05,ENE,69,3.0,7.0,61,0.00,,,0.00,Wunderground v.1.15,2013-07-02 03:57:00,